Stations météo

réclame
Mon MeteoGroup
St-Hubert, Belgique (6476): Température de l'air & dewpoint: 12.11.2018 05:00:00 - 18.11.2018 05:00:00 (CET)St-Hubert, Belgique (6476): Vitesse du vent & gusts: 12.11.2018 05:00:00 - 18.11.2018 05:00:00 (CET)St-Hubert, Belgique (6476): Direction du vent: 12.11.2018 05:00:00 - 18.11.2018 05:00:00 (CET)St-Hubert, Belgique (6476): reduced air pressure: 12.11.2018 05:00:00 - 18.11.2018 05:00:00 (CET)St-Hubert, Belgique (6476): visibility: 12.11.2018 05:00:00 - 18.11.2018 05:00:00 (CET)
Date & Time tt [°C] td [°C] ff [km/h] ff [knt] fx [km/h] fx [knt] dd ppp [hPa] vv [km]
18.11.2018 05:00:00 0,1 -3,8 29 16 43 23 E 1027,4 27
18.11.2018 04:00:00 0,1 -4,0 29 16 - - E 1027,5 28
18.11.2018 03:00:00 0,6 -3,9 29 16 47 25 E 1027,5 30
18.11.2018 02:00:00 1,0 -3,7 25 14 36 19 E 1027,7 35
18.11.2018 01:00:00 1,7 -3,7 25 14 - - E 1028,0 40
18.11.2018 00:00:00 2,2 2,2 25 14 43 23 E 1027,6 45
17.11.2018 23:00:00 2,6 -3,6 32 18 47 25 E 1027,7 45
17.11.2018 22:00:00 2,7 -4,3 29 16 - - E 1027,4 45
17.11.2018 21:00:00 3,0 -4,3 29 16 43 23 E 1027,2 45
17.11.2018 20:00:00 3,3 -3,7 25 14 40 21 E 1027,4 45
17.11.2018 19:00:00 3,6 -3,3 29 16 - - E 1027,6 45
17.11.2018 18:00:00 4,4 -2,6 32 18 47 25 E 1027,1 45
17.11.2018 17:00:00 4,9 -2,3 29 16 50 27 E 1026,7 45
17.11.2018 16:00:00 - - - - - - - - -
17.11.2018 15:00:00 6,6 -2,6 36 19 50 27 E 1026,1 30
17.11.2018 14:00:00 6,5 -1,9 29 16 47 25 E 1026,6 35
17.11.2018 13:00:00 6,0 -2,6 32 18 - - E 1026,9 30
17.11.2018 12:00:00 5,1 -2,0 32 18 50 27 ESE 1027,1 30
17.11.2018 11:00:00 3,6 -1,0 25 14 50 27 E 1027,8 23
17.11.2018 10:00:00 2,0 -1,4 25 14 - - E 1028,2 17
17.11.2018 09:00:00 0,9 -1,7 29 16 40 21 E 1028,5 13
17.11.2018 08:00:00 0,5 -1,7 29 16 40 21 E 1028,0 12
17.11.2018 07:00:00 0,8 -1,6 32 18 - - E 1027,6 12
17.11.2018 06:00:00 0,7 -1,3 25 14 40 21 E 1027,9 11
17.11.2018 05:00:00 1,1 -1,2 25 14 43 23 E 1028,0 13
17.11.2018 04:00:00 1,7 -1,1 25 14 - - E 1028,0 16
17.11.2018 03:00:00 1,2 -1,1 22 12 36 19 E 1028,1 14
17.11.2018 02:00:00 1,7 -0,6 22 12 32 18 E 1028,1 13
17.11.2018 01:00:00 1,2 -0,7 18 10 - - ENE 1028,2 10
17.11.2018 00:00:00 1,5 -0,6 22 12 43 23 ENE 1028,4 10
16.11.2018 23:00:00 2,8 -0,3 29 16 47 25 E 1028,0 17
16.11.2018 22:00:00 2,4 -0,4 22 12 - - E 1027,9 15
16.11.2018 21:00:00 3,5 -0,7 25 14 40 21 E 1027,6 23
16.11.2018 20:00:00 3,6 -0,7 25 14 40 21 E 1027,7 27
16.11.2018 19:00:00 3,8 0,0 22 12 - - E 1027,6 23
16.11.2018 18:00:00 4,5 1,7 18 10 29 16 ENE 1027,4 11
16.11.2018 17:00:00 5,1 2,2 18 10 29 16 E 1027,0 11
16.11.2018 16:00:00 - - - - - - - - -
16.11.2018 15:00:00 6,1 2,7 22 12 29 16 E 1026,9 12
16.11.2018 14:00:00 5,3 3,2 22 12 29 16 E 1027,3 12
16.11.2018 13:00:00 4,0 2,8 14 8 - - E 1028,0 10
16.11.2018 12:00:00 2,5 2,0 18 10 22 12 E 1028,7 0,2
16.11.2018 11:00:00 2,3 1,7 14 8 25 14 E 1028,8 0,4
16.11.2018 10:00:00 1,7 1,2 18 10 - - E 1028,7 0,2
16.11.2018 09:00:00 1,1 0,5 14 8 22 12 E 1028,6 0,3
16.11.2018 08:00:00 0,7 0,0 14 8 22 12 E 1028,2 0,5
16.11.2018 07:00:00 1,9 1,5 14 8 - - E 1027,5 0,1
16.11.2018 06:00:00 1,9 1,5 14 8 22 12 E 1027,3 0,2
16.11.2018 05:00:00 2,3 2,0 18 10 22 12 E 1027,1 0,1
16.11.2018 04:00:00 2,6 2,3 11 6 - - E 1026,9 0,1
16.11.2018 03:00:00 2,9 2,6 14 8 18 10 E 1026,9 0,1
16.11.2018 02:00:00 2,9 2,6 11 6 22 12 ENE 1026,9 0,1
16.11.2018 01:00:00 2,4 2,0 14 8 - - ENE 1026,9 0,1
16.11.2018 00:00:00 2,8 2,4 11 6 18 10 ENE 1026,9 0,2
15.11.2018 23:00:00 1,9 1,6 11 6 22 12 E 1027,1 0,2
15.11.2018 22:00:00 1,0 0,5 14 8 - - ENE 1027,2 0,4
15.11.2018 21:00:00 0,8 0,3 18 10 22 12 ENE 1026,9 0,4
15.11.2018 20:00:00 0,9 0,3 18 10 25 14 ENE 1026,7 0,4
15.11.2018 19:00:00 1,0 0,4 18 10 - - ENE 1026,6 0,6
15.11.2018 18:00:00 1,1 0,5 14 8 22 12 ENE 1026,4 -
15.11.2018 17:00:00 2,0 0,8 14 8 18 10 ENE 1026,2 35
15.11.2018 16:00:00 5,8 2,6 11 6 - - ENE 1025,3 45
15.11.2018 15:00:00 8,2 2,7 11 6 14 8 E 1024,9 45
15.11.2018 14:00:00 8,7 2,8 11 6 18 10 E 1025,0 40
15.11.2018 13:00:00 9,1 1,5 14 8 - - SE 1025,1 27
15.11.2018 12:00:00 9,4 0,7 11 6 22 12 SE 1025,2 40
15.11.2018 11:00:00 7,2 0,2 11 6 18 10 ESE 1026,1 45
15.11.2018 10:00:00 3,9 0,2 7 4 - - E 1027,0 40
15.11.2018 09:00:00 2,6 -0,1 11 6 14 8 E 1027,2 45
15.11.2018 08:00:00 0,3 -0,6 11 6 18 10 ENE 1027,7 5
15.11.2018 07:00:00 2,2 0,5 7 4 - - E 1027,0 40
15.11.2018 06:00:00 1,4 0,1 11 6 14 8 E 1027,1 -
15.11.2018 05:00:00 0,9 0,0 11 6 18 10 E 1027,2 2,8
15.11.2018 04:00:00 2,8 0,1 11 6 - - E 1026,8 30
15.11.2018 03:00:00 1,5 0,4 11 6 22 12 ESE 1027,4 24
15.11.2018 02:00:00 5,6 2,4 14 8 25 14 SSE 1026,4 45
15.11.2018 01:00:00 5,3 2,7 14 8 - - SSE 1026,7 45
15.11.2018 00:00:00 5,5 3,2 22 12 32 18 SSE 1026,6 30
14.11.2018 23:00:00 4,9 3,5 22 12 32 18 SE 1026,9 11
14.11.2018 22:00:00 5,2 3,5 22 12 - - SSE 1026,9 14
14.11.2018 21:00:00 5,8 1,9 22 12 32 18 SE 1026,9 24
14.11.2018 20:00:00 4,9 2,4 22 12 29 16 SSE 1027,5 27
14.11.2018 19:00:00 5,8 2,8 14 8 - - SE 1027,3 20
14.11.2018 18:00:00 5,8 4,3 22 12 29 16 SE 1027,3 12
14.11.2018 17:00:00 6,4 4,6 7 4 14 8 E 1027,5 29
14.11.2018 16:00:00 8,6 4,4 11 6 - - S 1027,3 35
14.11.2018 15:00:00 8,9 4,7 11 6 22 12 SE 1027,4 40
14.11.2018 14:00:00 9,0 5,6 14 8 29 16 SSE 1027,4 40
14.11.2018 13:00:00 7,9 5,9 14 8 - - SE 1028,2 21
14.11.2018 12:00:00 6,0 5,0 18 10 29 16 SSE 1029,1 -
14.11.2018 11:00:00 4,7 3,9 22 12 29 16 SE 1029,7 3,0
14.11.2018 10:00:00 4,2 3,6 18 10 - - SSE 1029,9 0,8
14.11.2018 09:00:00 4,4 3,9 14 8 22 12 SSE 1029,6 0,4
14.11.2018 08:00:00 4,2 3,7 14 8 18 10 SSE 1029,6 2,6
14.11.2018 07:00:00 3,6 3,2 11 6 - - SSE 1030,0 0,5
14.11.2018 06:00:00 3,5 3,1 11 6 14 8 SSE 1030,3 0,6
14.11.2018 05:00:00 - - - - - - - - -
14.11.2018 04:00:00 4,4 3,8 7 4 - - S 1031,0 5
14.11.2018 03:00:00 4,0 3,5 11 6 14 8 S 1031,5 4,4
14.11.2018 02:00:00 4,2 3,7 11 6 11 6 S 1031,5 2,4
14.11.2018 01:00:00 4,6 4,1 7 4 - - SW 1031,5 -
14.11.2018 00:00:00 4,1 3,6 7 4 14 8 SSW 1031,7 -
13.11.2018 23:00:00 5,1 4,5 7 4 14 8 SW 1031,2 10
13.11.2018 22:00:00 4,8 4,0 7 4 - - SW 1031,4 12
13.11.2018 21:00:00 5,1 4,2 11 6 14 8 SW 1031,2 14
13.11.2018 20:00:00 5,8 4,9 11 6 18 10 SW 1030,7 15
13.11.2018 19:00:00 6,1 5,1 14 8 - - SW 1030,3 17
13.11.2018 18:00:00 6,8 5,4 14 8 25 14 WSW 1029,8 21
13.11.2018 17:00:00 7,3 5,6 11 6 25 14 WSW 1029,1 27
13.11.2018 16:00:00 8,4 5,8 14 8 - - WSW 1028,2 30
13.11.2018 15:00:00 9,2 5,7 22 12 40 21 W 1027,1 30
13.11.2018 14:00:00 8,3 5,5 25 14 36 19 WSW 1027,1 29
13.11.2018 13:00:00 7,9 5,3 25 14 - - WSW 1026,9 30
13.11.2018 12:00:00 7,7 5,6 29 16 40 21 W 1026,6 28
13.11.2018 11:00:00 7,5 6,1 25 14 40 21 WSW 1026,0 23
13.11.2018 10:00:00 7,3 6,1 25 14 - - WSW 1025,2 17
13.11.2018 09:00:00 7,2 6,1 25 14 43 23 WSW 1024,6 13
13.11.2018 08:00:00 7,0 5,8 22 12 40 21 WSW 1023,9 15
13.11.2018 07:00:00 7,2 6,5 22 12 - - WSW 1022,8 5
13.11.2018 06:00:00 7,1 6,2 18 10 29 16 SW 1022,2 11
13.11.2018 05:00:00 6,9 6,0 14 8 29 16 SW 1022,0 11
13.11.2018 04:00:00 7,0 6,0 22 12 - - SW 1022,0 11
13.11.2018 03:00:00 7,0 6,0 14 8 25 14 SW 1021,2 -
13.11.2018 02:00:00 7,0 6,2 14 8 22 12 SW 1021,4 4,2
13.11.2018 01:00:00 6,9 6,1 11 6 - - SSW 1020,7 3,8
13.11.2018 00:00:00 6,9 6,1 11 6 22 12 SW 1020,7 -
12.11.2018 23:00:00 6,9 6,0 14 8 22 12 SW 1020,8 12
12.11.2018 22:00:00 6,8 6,1 11 6 - - SW 1020,1 17
12.11.2018 21:00:00 6,8 6,0 7 4 18 10 SW 1019,2 20
12.11.2018 20:00:00 7,0 6,1 11 6 22 12 SW 1019,1 45
12.11.2018 19:00:00 7,5 6,7 18 10 - - W 1018,7 40
12.11.2018 18:00:00 8,0 7,0 18 10 32 18 W 1017,8 45
12.11.2018 17:00:00 - - - - - - - - -
12.11.2018 16:00:00 9,9 9,1 22 12 - - WSW 1015,0 11
12.11.2018 15:00:00 9,9 9,2 18 10 43 23 WSW 1014,5 7
12.11.2018 14:00:00 10,2 9,5 25 14 43 23 WSW 1014,5 14
12.11.2018 13:00:00 11,7 10,3 22 12 - - SW 1013,2 25
12.11.2018 12:00:00 12,1 9,9 25 14 40 21 SW 1012,6 45
12.11.2018 11:00:00 12,1 10,1 22 12 43 23 SSW 1011,9 35
12.11.2018 10:00:00 11,4 9,8 25 14 - - SSW 1011,9 35
12.11.2018 09:00:00 10,6 9,1 25 14 40 21 S 1011,3 40
12.11.2018 08:00:00 9,4 8,5 18 10 29 16 S 1011,5 17
12.11.2018 07:00:00 8,8 8,0 14 8 - - SSE 1011,5 -
12.11.2018 06:00:00 8,4 7,8 11 6 18 10 ESE 1012,0 -
12.11.2018 05:00:00 7,9 7,3 11 6 18 10 E 1012,4 8

tt = Température de l'air
td = dewpoint
ff = Vitesse du vent
fx = gusts
dd = Direction du vent
ppp = reduced air pressure
vv = visibility

stations d'obs. à proximité